DW9677 Weather Reports


time (UTC)temp
F
wind
direction
speed
knots
gust
knots
rain 1hr
in
rain 24hr
in
rain mn
in
humidity
%
barometer
mb
20260506131546 65 44 0.0 1.7 0.00 0.46 0.01 64 1003.4
20260506130042 64 44 0.0 0.9 0.00 0.46 0.01 65 1003.5
20260506124540 64 44 0.0 0.9 0.00 0.46 0.01 64 1003.7
20260506123032 64 44 0.0 0.9 0.00 0.46 0.01 64 1003.8
20260506121529 64 44 0.0 0.9 0.00 0.46 0.01 67 1004.0
20260506120029 65 44 0.0 1.7 0.00 0.46 0.01 65 1004.1
20260506114522 65 44 0.0 1.7 0.00 0.46 0.01 65 1004.2
20260506113015 64 44 0.0 0.9 0.00 0.46 0.01 69 1004.4
20260506111510 63 44 0.0 0.9 0.00 0.46 0.01 67 1004.7
20260506110007 63 44 0.0 0.0 0.00 0.46 0.01 69 1004.8
20260506104503 62 44 0.0 0.9 0.00 0.46 0.01 72 1004.9
20260506103057 62 44 0.0 0.0 0.00 0.46 0.01 75 1005.4
20260506101553 61 44 0.0 0.0 0.00 0.46 0.01 73 1005.5
20260506100051 60 44 0.0 0.9 0.00 0.46 0.01 73 1005.4
20260506094555 60 44 0.0 0.9 0.00 0.46 0.01 72 1005.5
20260506093042 61 44 0.0 0.0 0.00 0.46 0.01 72 1005.7
20260506091535 61 44 0.0 0.0 0.00 0.46 0.01 74 1005.8
20260506090031 61 44 0.0 0.9 0.00 0.46 0.01 73 1005.7
20260506084534 60 44 0.0 0.0 0.00 0.46 0.01 75 1005.6
20260506083023 60 44 0.0 0.0 0.00 0.46 0.01 76 1005.8
20260506081521 61 44 0.0 0.9 0.00 0.46 0.01 74 1005.8
20260506073005 61 44 0.0 0.0 0.00 0.46 0.01 74 1006.2
20260506071504 58 44 0.0 0.0 0.00 0.46 0.01 67 1006.5
20260506061543 52 43 0.0 0.0 0.00 0.46 0.01 1 1006.8
20260506044529 47 42 0.0 0.0 0.00 0.45 0.00 1 1007.4
20260506043014 47 42 0.0 0.0 0.00 0.45 0.00 1 1007.1
20260506041507 46 43 0.0 0.0 0.00 0.45 0.00 1 1007.2
20260506040008 47 43 0.0 0.0 0.00 0.45 0.00 1 1007.5
20260506034605 47 42 0.0 0.0 0.00 0.45 0.00 1 1007.6
20260506033118 47 42 0.0 0.0 0.00 0.45 0.00 1 1007.5
20260506031553 47 43 0.0 0.0 0.00 0.45 0.00 1 1007.7
20260506030057 47 43 0.0 0.0 0.00 0.45 0.00 1 1007.8
20260506024542 48 43 0.0 0.0 0.00 0.45 0.00 1 1008.0
20260506023039 48 42 0.0 0.0 0.00 0.45 0.00 1 1008.2
20260506021534 48 43 0.0 0.0 0.00 0.45 0.00 1 1008.3
20260506020027 48 42 0.0 0.0 0.00 0.45 0.00 1 1008.1
20260506014523 48 43 0.0 0.0 0.00 0.45 0.00 1 1008.2
20260506013020 48 42 0.0 0.0 0.00 0.45 0.00 1 1008.3
20260506011534 49 42 0.0 0.0 0.00 0.45 0.00 1 1008.4
20260506010010 49 44 0.0 0.0 0.00 0.45 0.00 1 1008.6
20260506004516 49 43 0.0 0.0 0.00 0.45 0.00 1 1008.5
20260506003003 50 42 0.0 0.0 0.00 0.45 0.00 1 1008.4
20260506001601 50 43 0.0 0.0 0.00 0.45 0.00 1 1008.7
20260506000058 50 43 0.0 0.0 0.00 0.45 0.00 1 1008.8
20260505234549 50 42 0.0 0.0 0.00 0.45 0.00 1 1008.8
20260505233048 51 43 0.0 0.0 0.00 0.45 0.00 1 1008.8
20260505231543 51 43 0.0 0.0 0.00 0.45 0.00 1 1009.0
20260505230035 51 42 0.0 0.0 0.00 0.45 0.00 1 1009.0
20260505224532 51 43 0.0 0.0 0.01 0.45 0.00 1 1009.1
20260505223027 52 42 0.0 0.0 0.01 0.45 0.00 1 1009.1
20260505221523 52 43 0.0 0.0 0.03 0.45 0.00 1 1009.1
20260505220040 52 43 0.0 0.0 0.05 0.45 0.00 1 1009.3
20260505214525 52 42 0.0 0.0 0.07 0.44 0.44 1 1009.5
20260505213018 53 42 0.0 0.0 0.14 0.44 0.44 1 1009.6
20260505211505 53 43 0.0 0.0 0.15 0.42 0.42 1 1009.5
20260505210001 53 42 0.0 0.9 0.19 0.40 0.40 1 1009.4
20260505204556 53 42 0.0 0.0 0.25 0.37 0.37 7 1009.3
20260505203042 53 43 0.0 0.0 0.28 0.30 0.30 17 1009.1
20260505201541 53 42 0.0 0.0 0.26 0.27 0.27 35 1008.7
20260505200035 53 43 0.0 0.0 0.20 0.21 0.21 52 1008.5
20260505194528 54 43 0.0 0.0 0.11 0.12 0.12 67 1008.0
20260505193124 54 43 0.0 0.0 0.00 0.01 0.01 77 1007.8
20260505191523 54 43 0.0 0.0 0.00 0.01 0.01 78 1006.7
20260505190014 55 42 0.0 0.0 0.00 0.01 0.01 79 1006.4
20260505184511 57 43 0.0 0.0 0.00 0.01 0.01 77 1006.2
20260505183007 59 44 0.0 0.0 0.00 0.01 0.01 75 1006.0
20260505181502 60 44 0.0 0.0 0.00 0.01 0.01 70 1005.9
20260505180057 61 44 0.0 0.0 0.00 0.01 0.01 69 1006.1
20260505174553 61 44 0.0 0.0 0.00 0.01 0.01 71 1005.8
20260505173051 61 44 0.0 0.9 0.00 0.01 0.01 69 1005.4
20260505171557 63 44 0.0 0.0 0.00 0.01 0.01 72 1005.4
20260505170039 64 44 0.0 0.0 0.00 0.01 0.01 70 1005.1
20260505164552 65 44 0.0 0.0 0.00 0.01 0.01 67 1005.0
20260505163035 66 44 0.0 0.0 0.00 0.01 0.01 66 1005.1
20260505161535 66 44 0.0 0.0 0.00 0.01 0.01 62 1005.0
20260505153014 65 44 0.0 0.0 0.00 0.01 0.01 67 1004.9
20260505151510 64 44 0.0 0.0 0.01 0.01 0.01 72 1005.1